ONEWEB-0117 (47263 NORAD) Tracking and Keplerian Element Data

This shows tracking and keplerian element data for the satellite.

Feedback or suggestion? Click here.




ElementValue
Catalog47263
NameONEWEB-0117
Epoch Orbit175
Epoch Day20.91667824
Epoch Year2021
RAAN28.0381
Inclination87.3334
Eccentricity0.0011371
Argument of Perigee155.3488
Mean Anonmoly193.3417
Mean Motion14.86252995
Decay Rate-0.01312287
L11 47263U 20100F 21020.91667824 -.01312287 00000-0 -16228+0 0 9997
L22 47263 87.3334 28.0381 0011371 155.3488 193.3417 14.86252995 1753

Live tracking and technical data element details for ONEWEB-0117 (NORAD 47263). ONEWEB-0117 can be tracked NOW for your location showing map with azimuth and elevation plus other details from your city location.

Track the satellite on the map from your city or location and see movement details for azimuth, elevation, latitude, longitude, range, height, and movement on the map or in text.







IsCatalogInMostPopularTable: catalog: 47263, numindb: 12
Update: records affected: 1



GetName: 47263 ONEWEB-0117

Hit Count: updated at: Fri, 22 Jan 2021 16:32:06 GMT